AirNav   TITAN Aviation Fuels
 
 1563 users online  

GA75 Meadowlark Airport
Concord, Georgia, USA

GOING TO CONCORD?


FAA INFORMATION EFFECTIVE 06 OCTOBER 2022

Location

FAA Identifier: GA75
Lat/Long: 33-05-14.4480N 084-24-18.7210W
33-05.240800N 084-24.312017W
33.0873467,-84.4052003
(estimated)
Elevation: 784 ft. / 239 m (estimated)
Variation: 02W (1985)
From city: 3 miles E of CONCORD, GA
Time zone: UTC -4 (UTC -5 during Standard Time)
Zip code: 30206

Airport Operations

Airport use: Private use. Permission required prior to landing
Activation date: 12/1976
Control tower: no
ARTCC: ATLANTA CENTER
FSS: MACON FLIGHT SERVICE STATION
Attendance: IREG
Wind indicator: yes
Segmented circle: no

Airport Communications

WX AWOS-3 at 6A2 (11 nm NE): 119.750 (770-227-3934)
WX AWOS-3 at OPN (11 nm SE): 133.975 (706-646-4123)
WX ASOS at FFC (18 nm NW): 118.525 (770-487-1610)
WX AWOS-3 at HMP (19 nm N): 124.825 (770-707-1719)

Nearby radio navigation aids

NDB name  Hdg/Dist  Freq  Var  ID
PECAT167/13.431605WFFC ..-. ..-. -.-.
YATES316/14.933903WOP --- .--.
COWETA COUNTY126/18.523403WEQQ . --.- --.-

Airport Services

Runway Information

Runway 18/36

Dimensions: 2700 x 200 ft. / 823 x 61 m
Surface: turf
RUNWAY 18  RUNWAY 36
Traffic pattern: rightleft
Obstructions: 35 ft. pline, marked, 500 ft. from runwaytrees, 2000 ft. from runway

Airport Ownership and Management from official FAA records

Ownership: Privately-owned
Owner: KEVIN HARPER & MARIE-CLAIRE LABERGE
PO BOX 36
CONCORD, GA 30206
Phone 706-714-3418
Manager: MARIE-CLAIRE LABERGE
PO BOX 36
CONCORD, GA 30206
Phone 706-714-3418

Airport Operational Statistics

Aircraft based on the field: 3
Single engine airplanes: 2
Gliders airplanes: 1
    

Additional Remarks

FOR CD CTC ATLANTA APCH AT 678-364-6131.
PWR LNS AT N END OF RWY, LND RWY 36, TKOF RWY 18.

Instrument Procedures

There are no published instrument procedures at GA75.

Some nearby airports with instrument procedures:

6A2 - Griffin-Spalding County Airport (11 nm NE)
KOPN - Thomaston-Upson County Airport (11 nm SE)
KFFC - Atlanta Regional Airport-Falcon Field (18 nm NW)
KHMP - Atlanta Speedway Airport (19 nm N)
KCCO - Newnan Coweta County Airport (23 nm NW)
 
Loc | Ops | Rwys | IFR | FBO | Links
Com | Nav | Svcs | Stats | Notes
Area around GA75 (Meadowlark Airport)
 
Road maps at: MapQuest Bing Google
 
Aerial photo
WARNING: Photo may not be current or correct
Aerial photo of GA75 (Meadowlark Airport)
Photo taken 26-Sep-2007

Do you have a better or more recent aerial photo of Meadowlark Airport that you would like to share? If so, please send us your photo.

 
Sectional chart

 
Airport distance calculator
Flying to Meadowlark Airport? Find the distance to fly.

From to GA75

Sunrise and sunset
Times for 07-Oct-2022
 Local
(UTC-4)
 Zulu
(UTC)
Morning civil twilight07:1211:12
Sunrise07:3711:37
Sunset19:1423:14
Evening civil twilight19:3923:39

Current date and time
Zulu (UTC)  07-Oct-2022 16:18:36
Local (UTC-4)  07-Oct-2022 12:18:36
 
METAR
K6A2 
11nm NE 
071555Z AUTO 33004KT 10SM CLR 25/06 A3019 RMK AO2
KOPN 
11nm SE 
071555Z AUTO 32005KT 10SM CLR 28/07 A3020 RMK AO2
KFFC 
18nm NW 
071553Z AUTO 00000KT 10SM CLR 26/10 A3019 RMK AO2 SLP219 T02610100
KHMP 
19nm N 
071555Z AUTO 25004KT 10SM CLR 26/11 A3022 RMK AO2 T02570110
TAF
KATL 
33nm N 
071337Z 0714/0818 31001KT P6SM SKC FM071500 31008KT P6SM FEW250
NOTAMs
Click for the latest NOTAMs
NOTAMs are issued by the DoD/FAA and will open in a separate window not controlled by AirNav.

 

 
 

Would you like to see your business listed on this page?

 If your business provides an interesting product or service to pilots, flight crews, aircraft, or users of the Meadowlark Airport, you should consider listing it here.  To start the listing process, click on the button below
 
Add a business
 

Other Pages about Meadowlark Airport

Update a link
 
Copyright © AirNav, LLC. All rights reserved. Privacy Policy  Contact